Terminal Aerodrome Forecast
Issued by NWS

Home | Current Version | Previous Version | Text Only | Print | Product List | Glossary On
Versions: 1 2 3 4 5 6 7 8 9 10 11 12 13 14 15 16 17 18 19 20 21 22 23 24 25 26 27 28 29 30 31 32 33 34 35 36 37 38 39 40 41 42 43 44 45 46 47 48 49 50
875
FTUS44 KHGX 270804 AAA
TAFLBX
TAF AMD
KLBX 270804Z 2708/2806 15013G19KT P6SM VCSH BKN015 OVC025
      TEMPO 2708/2710 5SM -TSRA OVC020CB
     FM271000 16015KT P6SM VCSH OVC012
     FM271700 17016G26KT P6SM VCTS OVC025CB
     FM272300 17014KT P6SM SCT015 BKN250=

USA.gov is the U.S. government's official web portal to all federal, state and local government web resources and services.